Portada
METAR-TAF:

METAR-TAF

Aeroports :

Shell Mera, Equador

latitud: 01-30-19S, longitud: 078-03-46W, altitud: 1056 m

Observació

L'informe es va fer fa 37 minuts, a les 11:00 UTC
Vent 6 kt del Nord/Nord-Oest
Temperatura 16°C
Humitat 100%
Pressió 1017 hPa
Visibilitat: 5000 m
Escasses núvols a una alçada de 700 ft
Cel ennuvolat a una alçada de 3000 ft
Cel cobert a una alçada de 10000 ft
pluja

METAR: SESM 251100Z 33006KT 5000 -RA FEW007 BKN030 OVC100 16/16 Q1017 RMK A3010

Hora: 06:37 (11:37 UTC)


TAF: manca

Observacions i pronòstics meteorològics de més de 4000 aeroports (METAR i TAF).

Les estacions disponibles són els punts grocs i vermells al mapa.

Posi el ratolí al punt desitjat per veure el nom de l'estació.

Feu clic per veure les observacions i els pronòstics meteorològics.

Per canviar el mapa: feu clic els botons verds amb una creu de color negre per apropar; al botó verd amb un guió per allunyar la imatge; o en les fletxes verdes per a mapes adjacents.


METAR-TAF: